[PSP] Dev PPSSPP GITv1.4-109-g2c6161c

[7] @ Piątek, 21 Kwietnia 2017 12:45CET

[PSP] Dev PPSSPP GITv1.4-109-g2c6161c

PPSSPP to projekt emulatora przenośnej konsoli SONY PSP, napisanym w C++ przez jednego ze współautorów emulatora Dolphin udającego konsolę Nintendo Wii/GameCube Henrika Rydgarda, podobnie jak Dolphin, emulator posiada status open source i  każdy może korzystać z repozytorium na githubie.
W chwili obecnej jest to bezsprzecznie najlepszy emulator, który pozwala nam pobawić się oprogramowaniem na tę konsolę – oczywiście, kompatybilność nie jest 100 procentowa, zdarzają się (i to często) takie tytuły, które PPSSPP nie potrafi udźwignąć – jednak w szybkim tempie baza obsługiwanych tytułów poszerza się o kolejne.

Ostatnia pełna wersja to PPSSPP 1.4, poniższe zmiany są zapisem prac nad wersją deweloperską projektu.

Dzięki automatycznej kompilacji, tak jak w wypadku PCSX2JPCSP dostarczanym przez Orphisa możemy na bieżąco śledzić zmiany w tym arcyciekawym projekce.

PPSSPP Developer version GITv1.4-109-g2c6161c 2017-04-21 09:26:54

» [PSP] Dev PPSSPP GITv1.4-163-ge880c03

PPSSPP Developer version GITv1.4-163-ge880c03 2017-04-30 09:59:47

PPSSPP Developer version GITv1.4-161-g4f6b9c1 2017-04-30 08:53:22

PPSSPP Developer version GITv1.4-160-g54e2b2b 2017-04-30 08:19:16

PPSSPP Developer version GITv1.4-158-g446d103 2017-04-30 08:16:21

PPSSPP Developer version GITv1.4-156-gee68f09 2017-04-30 02:23:58

» [PSP] Dev PPSSPP GITv1.4-153-g712fb08

PPSSPP Developer version GITv1.4-153-g712fb08 2017-04-29 22:15:54

PPSSPP Developer version GITv1.4-146-gdbd8085 2017-04-29 20:51:51

PPSSPP Developer version GITv1.4-144-g4a97ab2 2017-04-29 16:50:08

» [PSP] Dev PPSSPP GITv1.4-142-g14e6667

PPSSPP Developer version GITv1.4-142-g14e6667 2017-04-27 17:40:54

PPSSPP Developer version GITv1.4-141-g96b858e 2017-04-27 17:34:19

» [PSP] Dev PPSSPP GITv1.4-134-g339d4b2

PPSSPP Developer version GITv1.4-134-g339d4b2 2017-04-25 02:09:50

» [PSP] Dev PPSSPP GITv1.4-126-gdbe714a

PPSSPP Developer version GITv1.4-126-gdbe714a 2017-04-24 14:43:34

» [PSP] Dev PPSSPP GITv1.4-124-g1a58629

PPSSPP Developer version GITv1.4-124-g1a58629 2017-04-23 21:11:02

» [PSP] Dev PPSSPP GITv1.4-105-g6f58d4d

PPSSPP Developer version GITv1.4-105-g6f58d4d 2017-04-18 09:34:18

» [PSP] Dev PPSSPP GITv1.4-103-g87ca5cd

PPSSPP Developer version GITv1.4-103-g87ca5cd 2017-04-17 19:39:37

» [PSP] Dev PPSSPP GITv1.4-101-g0fb01a2

PPSSPP Developer version GITv1.4-101-g0fb01a2 2017-04-16 09:33:04

PPSSPP Developer version GITv1.4-93-g1a9e93d 2017-04-16 09:29:10

» [PSP] Dev PPSSPP GITv1.4-87-g627c280

PPSSPP Developer version GITv1.4-87-g627c280 2017-04-15 09:41:25

» [PSP] Dev PPSSPP GITv1.4-84-ga4cb215

PPSSPP Developer version GITv1.4-84-ga4cb215 2017-04-14 21:47:02

» [PSP] Dev PPSSPP GITv1.4-82-gaa2b4a2

PPSSPP Developer version GITv1.4-82-gaa2b4a2 2017-04-13 09:11:51

PPSSPP Developer version GITv1.4-80-gd2172c7 2017-04-13 01:09:59

» [PSP] Dev PPSSPP GITv1.4-79-g0cb4344

PPSSPP Developer version GITv1.4-79-g0cb4344 2017-04-12 09:54:03

PPSSPP Developer version GITv1.4-76-g81c3c7c 2017-04-12 09:48:30

» [PSP] Dev PPSSPP GITv1.4-73-gc899882

PPSSPP Developer version GITv1.4-73-gc899882 2017-04-11 12:53:11

PPSSPP Developer version GITv1.4-72-g56c3753 2017-04-10 17:11:13

PPSSPP Developer version GITv1.4-70-gfa64241 2017-04-10 10:07:05

PPSSPP Developer version GITv1.4-68-ga85b76e 2017-04-10 00:51:01

PPSSPP Developer version GITv1.4-64-gd703886 2017-04-09 10:26:52

PPSSPP Developer version GITv1.4-58-g4f7bfbe 2017-04-09 09:37:18

PPSSPP Developer version GITv1.4-56-gb1a530b 2017-04-07 09:57:58

PPSSPP Developer version GITv1.4-54-g706714e 2017-04-07 09:31:18

» [PSP] Dev PPSSPP GITv1.4

PPSSPP Developer version GITv1.4 2017-03-31 11:34:57

PPSSPP Developer version GITv1.3-1164-g8a7661a 2017-03-31 10:56:30

PPSSPP Developer version GITv1.3-1163-gc1838b8 2017-03-31 10:39:40

PPSSPP Developer version GITv1.3-1161-gfd47e39 2017-03-31 10:27:37

PPSSPP Developer version GITv1.3-1160-gc548d91 2017-03-30 14:14:27

PPSSPP Developer version GITv1.3-1155-g50e4520 2017-03-29 23:25:29

PPSSPP Developer version GITv1.3-1154-g1cb9378 2017-03-29 21:18:26

PPSSPP Developer version GITv1.3-1152-ge0fb6c9 2017-03-29 16:52:49

PPSSPP Developer version GITv1.3-1151-g15f6b5d 2017-03-29 16:23:32

PPSSPP Developer version GITv1.3-1150-g84d7d5b 2017-03-29 11:11:43

PPSSPP Developer version GITv1.3-1144-g12c8e2e 2017-03-29 10:28:42

PPSSPP Developer version GITv1.3-1143-gb0b72cd 2017-03-28 13:17:32

PPSSPP Developer version GITv1.3-1140-g60f74c3 2017-03-27 16:58:08

PPSSPP Developer version GITv1.3-1139-g9f3580f 2017-03-27 12:03:49

PPSSPP Developer version GITv1.3-1138-g60b8ffa 2017-03-26 19:21:21

» [PSP] Dev PPSSPP GITv1.3-146-g9c08b60

PPSSPP Developer version GITv1.3-146-g9c08b60 2016-11-05 06:32:14

Inne treści związane z tematem
[PSX2] Dev PCSX2 SVNv1.5.0-dev-2048-gd9e43b5 [PSX2] Dev PCSX2 SVNv1.5.0-dev-2048-gd9e43b5;
Kolejna developerska wersja PCSX2 – emulatora konsoli Sony Playstation II serwowana przez automatyczny build Orphisa. Ostatnia oficjalna wersja tego emulatora to PCSX2 1.4.0.
[PSP] Dev PPSSPP GITv1.4-163-ge880c03 [PSP] Dev PPSSPP GITv1.4-163-ge880c03;
PPSSPP to projekt emulatora przenośnej konsoli SONY PSP, napisanym w C++ przez jednego ze współautorów emulatora Dolphin udającego konsolę Nintendo Wii/GameCube Henrika Rydgarda, podobnie jak Dolphin, emulator posiada status open source i  każdy może korzystać ...
[PSX2] Dev PCSX2 SVNv1.5.0-dev-2046-ga3b3b4f [PSX2] Dev PCSX2 SVNv1.5.0-dev-2046-ga3b3b4f;
Kolejna developerska wersja PCSX2 – emulatora konsoli Sony Playstation II serwowana przez automatyczny build Orphisa. Ostatnia oficjalna wersja tego emulatora to PCSX2 1.4.0.
[PSP] Dev PPSSPP GITv1.4-153-g712fb08 [PSP] Dev PPSSPP GITv1.4-153-g712fb08;
PPSSPP to projekt emulatora przenośnej konsoli SONY PSP, napisanym w C++ przez jednego ze współautorów emulatora Dolphin udającego konsolę Nintendo Wii/GameCube Henrika Rydgarda, podobnie jak Dolphin, emulator posiada status open source i  każdy może korzystać ...
[PSX2] Dev PCSX2 SVNv1.5.0-dev-2045-g413d182 [PSX2] Dev PCSX2 SVNv1.5.0-dev-2045-g413d182;
Kolejna developerska wersja PCSX2 – emulatora konsoli Sony Playstation II serwowana przez automatyczny build Orphisa. Ostatnia oficjalna wersja tego emulatora to PCSX2 1.4.0.